Kefallinia, Greece

1:10 PM EET on January 22, 2018 (GMT +0200)
Kefallinia

Weather History for LGKF - September, 2013

Change the Weather History Date:

Tuesday, September 3, 2013

  Actual Average Record
Temperature  
Mean Temperature 78 °F -  
Max Temperature 84 °F 76 °F 91 °F (2004)
Min Temperature 73 °F 66 °F 62 °F (2006)
Cooling Degree Days 14    
Growing Degree Days 28 (Base 50)    
Moisture  
Dew Point 65 °F    
Average Humidity 63    
Maximum Humidity 78    
Minimum Humidity 48    
Precipitation  
Precipitation 0.00 in - - ()
Sea Level Pressure  
Sea Level Pressure 30.06 in    
Wind  
Wind Speed 11 mph ()    
Max Wind Speed 20 mph    
Max Gust Speed -    
Visibility 6.2 miles    
Events      
Averages and records for this station are not official NWS values.
T = Trace of Precipitation, MM = Missing Value Source: Averaged Metar Reports

Daily Weather History Graph

Daily Weather History Graph

Search for Another Location

Airport or City:

Trip Planner

Search our weather history database for the weather conditions in past years. The results will help you decide how hot, cold, wet, or windy it might be!

Date:

Astronomy

Sep. 03, 2013 Rise Set
Actual Time 7:09 AM EEST 8:04 PM EEST
Civil Twilight 6:42 AM EEST 8:31 PM EEST
Nautical Twilight 6:10 AM EEST 9:03 PM EEST
Astronomical Twilight 5:37 AM EEST 9:36 PM EEST
Moon 5:06 AM EEST (9/3) 6:41 PM EEST (9/3)
Length of Visible Light 13h 48m
Length of Day
12h 55m
Waning Crescent, 4% of the Moon is Illuminated
Sep 3
Waning Crescent
Sep 5
New
Sep 12
First Quarter
Sep 19
Full
Sep 27
Last Quarter

Hourly Weather History & Observations

Time (EEST) Temp. Heat Index Dew Point Humidity Pressure Visibility Wind Dir Wind Speed Gust Speed Precip Events Conditions
4:50 AM 73.4 °F - 66.2 °F 78% 30.06 in 6.2 mi NNW 9.2 mph - N/A   Partly Cloudy
5:50 AM 73.4 °F - 64.4 °F 73% 30.06 in 6.2 mi NW 10.4 mph - N/A   Partly Cloudy
6:50 AM 73.4 °F - 66.2 °F 78% 30.06 in 6.2 mi NNW 8.1 mph - N/A   Partly Cloudy
7:50 AM 73.4 °F - 66.2 °F 78% 30.06 in 6.2 mi NNW 6.9 mph - N/A   Partly Cloudy
8:50 AM 77.0 °F - 66.2 °F 69% 30.06 in 6.2 mi NNW 12.7 mph - N/A   Partly Cloudy
9:50 AM 78.8 °F - 64.4 °F 61% 30.09 in 6.2 mi NNW 12.7 mph - N/A   Partly Cloudy
10:50 AM 80.6 °F 82.3 °F 64.4 °F 58% 30.09 in 6.2 mi NNW 13.8 mph - N/A   Partly Cloudy
11:50 AM 82.4 °F 83.9 °F 64.4 °F 54% 30.09 in 6.2 mi NW 15.0 mph - N/A   Partly Cloudy
12:50 PM 84.2 °F 85.6 °F 64.4 °F 51% 30.09 in 6.2 mi NNW 13.8 mph - N/A   Partly Cloudy
1:50 PM 84.2 °F 85.0 °F 62.6 °F 48% 30.09 in 6.2 mi NNW 16.1 mph - N/A   Partly Cloudy
2:50 PM 84.2 °F 85.6 °F 64.4 °F 51% 30.06 in 6.2 mi NW 17.3 mph - N/A   Partly Cloudy
3:50 PM 84.2 °F 85.6 °F 64.4 °F 51% 30.06 in 6.2 mi NW 18.4 mph - N/A   Partly Cloudy
4:50 PM 84.2 °F 85.6 °F 64.4 °F 51% 30.06 in 6.2 mi NW 18.4 mph - N/A   Partly Cloudy
5:50 PM 82.4 °F 84.6 °F 66.2 °F 58% 30.04 in 6.2 mi NW 17.3 mph - N/A   Partly Cloudy
6:50 PM 80.6 °F 83.2 °F 68.0 °F 65% 30.04 in 6.2 mi NNW 18.4 mph - N/A   Partly Cloudy
7:50 PM 78.8 °F - 66.2 °F 65% 30.04 in 6.2 mi NNW 19.6 mph - N/A   Partly Cloudy
8:50 PM 77.0 °F - 68.0 °F 74% 30.04 in 6.2 mi NNW 15.0 mph - N/A   Partly Cloudy
9:50 PM 77.0 °F - 66.2 °F 69% 30.04 in 6.2 mi NNW 15.0 mph - N/A   Partly Cloudy
10:50 PM 75.2 °F - 66.2 °F 73% 30.04 in 6.2 mi NNW 19.6 mph - N/A   Partly Cloudy